Regional Weather Roundup
Issued by NWS

Home | Current Version | Previous Version | Graphics & Text | Print | Product List | Glossary On
Versions: 1 2 3 4 5 6 7 8 9 10 11 12 13 14 15 16 17 18 19 20 21 22 23 24 25 26 27 28 29 30 31 32 33 34 35 36 37 38 39 40 41 42 43 44 45 46 47 48 49 50
386
ASUS43 KFSD 201110
RWRSD

WEATHER ROUNDUP FOR SOUTH DAKOTA
NATIONAL WEATHER SERVICE SIOUX FALLS SD
500 AM CST SAT JAN 20 2018

NOTE: "FAIR" INDICATES FEW OR NO CLOUDS BELOW 12,000 FEET WITH NO
SIGNIFICANT WEATHER AND/OR OBSTRUCTIONS TO VISIBILITY.


SDZ001>005-009-010-012>017-201200-
NORTHWEST AND NORTH CENTRAL SOUTH DAKOTA

CITY           SKY/WX    TMP DP  RH WIND       PRES   REMARKS
BUFFALO          N/A     35  32  88 W7        29.75S WCI  29
FAITH            N/A     34  34 100 SW5       29.82S WCI  30
MOBRIDGE       CLOUDY    33  30  88 CALM      29.78F
$$

SDZ012>016-024>037-041>051-057-063-072>074-201200-
SOUTHWEST AND SOUTH CENTRAL SOUTH DAKOTA

CITY           SKY/WX    TMP DP  RH WIND       PRES   REMARKS
RAPID CTY ARPT CLOUDY    34  31  88 N10       29.81R WCI  26
PIERRE         CLOUDY    33  32  96 CALM      29.81
CUSTER         MOCLDY    28  23  81 CALM      29.76R
ELLSWORTH AFB  CLOUDY    34  34 100 N10       29.82  WCI  26
PHILIP         CLOUDY    31  30  96 W5        29.82S WCI  26
PINE RIDGE     CLEAR     21  20  96 CALM      29.79F
SPEARFISH      LGT SNOW  32  32 100 W9        29.84R WCI  24
WINNER         FAIR      31  28  89 SW5       29.81S WCI  26
$$

SDZ004>011-016>023-039-040-201200-
NORTHEAST SOUTH DAKOTA

CITY           SKY/WX    TMP DP  RH WIND       PRES   REMARKS
ABERDEEN       CLOUDY    28  26  92 SW3       29.81S
WATERTOWN      CLOUDY    27  26  96 CALM      29.79S
BROOKINGS      CLOUDY    26  23  88 CALM      29.81R
SISSETON         N/A     36  28  73 W5        29.78S
$$

SDZ017-020-022-023-036>040-048>070-201200-
SOUTHEAST SOUTH DAKOTA

CITY           SKY/WX    TMP DP  RH WIND       PRES   REMARKS
SIOUX FALLS    CLOUDY    28  26  92 CALM      29.81S
HURON          PTCLDY    25  24  96 CALM      29.82S
CHAMBERLAIN    CLEAR     29  29 100 W6        29.81F WCI  23
MITCHELL       CLEAR     28  26  92 NW5       29.82F WCI  23
YANKTON        CLOUDY    28  26  92 NW9       29.82S WCI  19
$$

ABBREVIATIONS USED IN REMARKS
   TC - TEMPERATURE IN CELSIUS
  WCI - WIND CHILL INDEX
   HX - HEAT INDEX
  VSB - VISIBILITY





USA.gov is the U.S. government's official web portal to all federal, state and local government web resources and services.